TimeEDT,TemperatureF,Dew PointF,Humidity,Sea Level PressureIn,VisibilityMPH,Wind Direction,Wind SpeedMPH,Gust SpeedMPH,PrecipitationIn,Events,Conditions,WindDirDegrees,DateUTC
12:15 AM,53.6,51.3,92,30.15,10.0,North,-9999.0,-,N/A,,Clear,0,2012-10-26 04:15:00
12:35 AM,52.9,50.7,92,30.15,10.0,North,-9999.0,-,N/A,,Clear,0,2012-10-26 04:35:00
12:55 AM,52.7,51.4,95,30.15,10.0,North,-9999.0,-,N/A,,Clear,0,2012-10-26 04:55:00
1:15 AM,52.2,50.9,95,30.15,10.0,North,-9999.0,-,N/A,,Clear,0,2012-10-26 05:15:00
1:55 AM,51.8,50.9,97,30.15,10.0,North,-9999.0,-,N/A,,Clear,0,2012-10-26 05:55:00
2:35 AM,51.1,50.4,97,30.15,10.0,North,-9999.0,-,N/A,,Clear,0,2012-10-26 06:35:00
2:55 AM,50.9,50.0,97,30.16,10.0,North,-9999.0,-,N/A,,Clear,0,2012-10-26 06:55:00
3:15 AM,50.7,49.3,95,30.16,10.0,North,-9999.0,-,N/A,,Clear,0,2012-10-26 07:15:00
3:35 AM,50.4,49.3,96,30.16,10.0,North,-9999.0,-,N/A,,Clear,0,2012-10-26 07:35:00
3:55 AM,50.4,49.8,98,30.16,10.0,North,-9999.0,-,N/A,,Clear,0,2012-10-26 07:55:00
4:15 AM,50.5,50.2,99,30.16,7.0,North,-9999.0,-,N/A,,Clear,0,2012-10-26 08:15:00
4:35 AM,50.2,49.8,99,30.17,7.0,North,-9999.0,-,N/A,,Clear,0,2012-10-26 08:35:00
4:55 AM,50.5,50.4,99,30.16,10.0,North,-9999.0,-,N/A,,Clear,0,2012-10-26 08:55:00
5:15 AM,50.4,50.4,100,30.16,10.0,North,-9999.0,-,N/A,,Clear,0,2012-10-26 09:15:00
5:35 AM,50.0,50.0,100,30.17,7.0,North,-9999.0,-,N/A,,Clear,0,2012-10-26 09:35:00
5:55 AM,49.5,49.5,100,30.16,7.0,North,-9999.0,-,N/A,,Clear,0,2012-10-26 09:55:00
6:15 AM,50.0,49.6,99,30.17,5.0,North,-9999.0,-,N/A,,Clear,0,2012-10-26 10:15:00
6:35 AM,49.3,49.3,100,30.17,10.0,North,-9999.0,-,N/A,,Clear,0,2012-10-26 10:35:00
6:55 AM,49.3,49.3,100,30.18,7.0,North,-9999.0,-,N/A,,Clear,0,2012-10-26 10:55:00
7:15 AM,49.3,49.3,100,30.18,10.0,North,-9999.0,-,N/A,,Scattered Clouds,0,2012-10-26 11:15:00
7:35 AM,50.0,49.8,99,30.18,7.0,North,-9999.0,-,N/A,,Mostly Cloudy,0,2012-10-26 11:35:00
8:15 AM,51.1,51.1,100,30.19,5.0,North,-9999.0,-,N/A,,Mostly Cloudy,0,2012-10-26 12:15:00
8:35 AM,51.8,51.8,100,30.19,7.0,North,-9999.0,-,N/A,,Mostly Cloudy,0,2012-10-26 12:35:00
9:15 AM,54.9,54.7,99,30.20,10.0,North,-9999.0,-,N/A,,Mostly Cloudy,0,2012-10-26 13:15:00
9:35 AM,57.7,56.5,96,30.20,10.0,North,-9999.0,-,N/A,,Scattered Clouds,0,2012-10-26 13:35:00
9:55 AM,59.2,56.3,90,30.19,10.0,North,-9999.0,-,N/A,,Scattered Clouds,0,2012-10-26 13:55:00
10:15 AM,63.7,58.1,82,30.19,10.0,North,-9999.0,-,N/A,,Scattered Clouds,0,2012-10-26 14:15:00
10:55 AM,69.4,58.5,68,30.18,10.0,North,-9999.0,-,N/A,,Clear,0,2012-10-26 14:55:00
11:15 AM,73.8,59.0,60,30.18,10.0,North,-9999.0,-,N/A,,Clear,0,2012-10-26 15:15:00
11:35 AM,74.3,57.9,57,30.17,10.0,North,-9999.0,-,N/A,,Clear,0,2012-10-26 15:35:00
11:55 AM,74.8,57.2,54,30.17,10.0,North,-9999.0,-,N/A,,Clear,0,2012-10-26 15:55:00
12:15 PM,77.0,57.6,51,30.16,10.0,North,-9999.0,-,N/A,,Clear,0,2012-10-26 16:15:00
12:35 PM,75.9,55.9,50,30.14,10.0,North,-9999.0,-,N/A,,Clear,0,2012-10-26 16:35:00
12:55 PM,77.7,54.7,45,30.13,10.0,North,-9999.0,-,N/A,,Clear,0,2012-10-26 16:55:00
1:15 PM,78.6,54.0,42,30.12,10.0,North,-9999.0,-,N/A,,Clear,0,2012-10-26 17:15:00
1:35 PM,79.5,53.8,41,30.11,10.0,North,-9999.0,-,N/A,,Scattered Clouds,0,2012-10-26 17:35:00
2:15 PM,78.4,52.7,41,30.09,10.0,North,-9999.0,-,N/A,,Clear,0,2012-10-26 18:15:00
2:35 PM,78.6,51.8,39,30.08,10.0,North,-9999.0,-,N/A,,Scattered Clouds,0,2012-10-26 18:35:00
2:55 PM,79.3,51.8,38,30.08,10.0,North,-9999.0,-,N/A,,Overcast,0,2012-10-26 18:55:00
3:15 PM,79.0,51.8,39,30.07,10.0,North,-9999.0,-,N/A,,Overcast,0,2012-10-26 19:15:00
3:35 PM,78.8,51.3,38,30.06,10.0,North,-9999.0,-,N/A,,Mostly Cloudy,0,2012-10-26 19:35:00
3:55 PM,77.9,51.6,40,30.05,10.0,North,-9999.0,-,N/A,,Scattered Clouds,0,2012-10-26 19:55:00
4:15 PM,77.9,51.8,40,30.05,10.0,North,-9999.0,-,N/A,,Mostly Cloudy,0,2012-10-26 20:15:00
4:35 PM,77.9,53.4,43,30.04,10.0,North,-9999.0,-,N/A,,Mostly Cloudy,0,2012-10-26 20:35:00
4:55 PM,77.0,52.2,42,30.04,10.0,North,-9999.0,-,N/A,,Scattered Clouds,0,2012-10-26 20:55:00
5:15 PM,76.5,53.2,44,30.03,10.0,North,-9999.0,-,N/A,,Mostly Cloudy,0,2012-10-26 21:15:00
5:35 PM,73.8,58.5,59,30.04,10.0,North,-9999.0,-,N/A,,Mostly Cloudy,0,2012-10-26 21:35:00
5:55 PM,70.9,57.2,62,30.04,10.0,North,-9999.0,-,N/A,,Mostly Cloudy,0,2012-10-26 21:55:00
6:15 PM,69.3,57.4,66,30.04,10.0,North,-9999.0,-,N/A,,Overcast,0,2012-10-26 22:15:00
6:35 PM,68.0,57.0,68,30.05,10.0,North,-9999.0,-,N/A,,Overcast,0,2012-10-26 22:35:00
6:55 PM,66.6,57.2,72,30.05,10.0,North,-9999.0,-,N/A,,Overcast,0,2012-10-26 22:55:00
7:15 PM,65.7,56.8,73,30.05,10.0,North,-9999.0,-,N/A,,Overcast,0,2012-10-26 23:15:00
7:35 PM,63.9,56.3,76,30.05,10.0,North,-9999.0,-,N/A,,Mostly Cloudy,0,2012-10-26 23:35:00
7:55 PM,63.3,55.9,77,30.05,10.0,North,-9999.0,-,N/A,,Mostly Cloudy,0,2012-10-26 23:55:00
8:15 PM,62.6,55.9,79,30.05,10.0,North,-9999.0,-,N/A,,Mostly Cloudy,0,2012-10-27 00:15:00
8:35 PM,61.9,55.9,81,30.05,10.0,North,-9999.0,-,N/A,,Overcast,0,2012-10-27 00:35:00
8:55 PM,61.9,55.9,81,30.05,10.0,North,-9999.0,-,N/A,,Overcast,0,2012-10-27 00:55:00
9:15 PM,62.4,56.3,80,30.05,10.0,North,-9999.0,-,N/A,,Overcast,0,2012-10-27 01:15:00
9:55 PM,60.4,55.8,85,30.06,10.0,North,-9999.0,-,N/A,,Scattered Clouds,0,2012-10-27 01:55:00
10:15 PM,59.7,55.4,86,30.05,10.0,North,-9999.0,-,N/A,,Clear,0,2012-10-27 02:15:00
10:35 PM,59.2,55.4,87,30.05,10.0,North,-9999.0,-,N/A,,Mostly Cloudy,0,2012-10-27 02:35:00
11:15 PM,61.0,55.8,83,30.04,10.0,North,-9999.0,-,N/A,,Mostly Cloudy,0,2012-10-27 03:15:00
11:35 PM,59.9,55.8,86,30.04,10.0,North,-9999.0,-,N/A,,Mostly Cloudy,0,2012-10-27 03:35:00
11:55 PM,58.6,55.8,90,30.04,10.0,North,-9999.0,-,N/A,,Scattered Clouds,0,2012-10-27 03:55:00